RH
20 21 21 22 23 24 24 24 25 26 26 26 27 28 29 28 28 26 25 25 24 23 22 21 20 21 21 21 21 21 24 23 21 20 18 17 16 16 15 13 12 11 11 10 11 10 10 9 9 8 8 8 8 9 9 10 9 10 16 17 16 17 17 16 15 16 18 18 18 17 16 16 17 15 13 14 15 15 16 17 17 18 18 20 23 26 27 28
21 20 22 22 24 24 24 25 25 26 27 27 27 27 28 29 29 28 27 27 26 25 24 23 21 20 20 19 19 19 19 19 19 18 16 16 15 15 14 13 12 11 10 10 10 10 10 10 9 9 9 9 9 9 10 10 9 10 14 13 16 17 15 14 15 16 17 17 18 18 15 14 15 14 13 16 17 17 19 19 19 20 22 23 23 25 26 26
25 24 25 26 27 27 27 27 26 26 27 27 27 27 27 27 27 27 26 25 25 24 23 22 21 21 21 21 20 20 20 21 21 20 18 18 17 16 15 15 14 12 11 11 10 9 9 8 8 8 8 8 8 10 10 10 10 11 11 13 17 18 14 13 14 14 14 15 16 16 14 13 15 15 15 17 19 19 20 22 21 21 23 23 23 23 23 23
27 26 27 27 28 29 29 28 27 27 26 26 25 25 25 24 23 23 22 21 21 20 20 19 18 18 18 18 19 20 21 23 24 22 21 20 20 19 19 19 18 17 16 16 15 14 13 12 11 11 10 10 10 11 11 10 10 11 12 14 16 15 14 13 13 13 13 14 14 15 14 14 15 16 16 17 19 21 21 24 23 22 22 22 23 22 22 21
28 27 27 29 30 30 31 30 29 27 25 24 23 23 22 21 20 20 19 19 19 18 18 18 17 17 16 16 17 18 19 23 24 21 20 19 18 18 18 18 18 18 18 18 18 17 16 15 15 15 14 14 14 15 16 15 14 13 12 13 13 12 13 13 13 14 14 14 14 14 15 15 16 17 19 19 21 23 23 24 24 24 23 24 24 23 23 23
30 29 29 30 31 32 32 30 29 27 26 24 23 22 22 22 22 21 21 21 21 21 21 21 20 20 20 19 20 20 22 24 23 20 20 19 19 19 18 18 18 18 18 18 18 18 17 16 16 15 15 15 16 17 18 19 19 18 16 15 13 12 13 14 14 15 15 15 15 15 16 16 16 18 20 21 23 24 24 25 24 25 25 25 25 25 25 25
31 30 30 31 32 32 30 29 27 25 24 23 23 22 23 24 24 25 25 25 25 26 26 25 24 24 24 24 25 25 24 24 24 23 24 23 22 20 19 18 18 18 18 19 19 19 18 16 16 15 15 15 17 18 18 19 20 21 20 19 17 15 14 15 15 16 16 16 16 15 16 16 18 19 21 23 25 25 25 25 26 26 26 25 26 26 27 27
32 32 32 33 33 32 29 26 23 21 21 21 22 24 25 25 26 26 26 26 26 27 26 25 25 25 25 26 29 28 25 25 25 24 23 22 21 19 18 18 17 18 18 19 19 18 18 16 15 14 15 16 17 19 19 20 21 22 22 21 20 19 18 17 18 18 17 16 16 16 17 18 19 20 23 25 26 26 27 27 27 27 27 27 27 28 28 28
33 34 34 33 32 30 27 23 21 21 22 23 25 27 28 28 27 27 26 25 24 24 24 24 25 26 25 26 28 27 25 26 24 23 22 21 20 20 20 19 19 19 20 20 20 20 19 17 17 16 17 17 17 20 20 22 24 24 23 23 22 22 22 19 20 20 19 18 17 18 19 20 20 21 25 27 27 28 27 28 28 28 28 29 29 30 30 30
35 35 34 33 30 27 24 22 23 24 25 28 29 30 29 28 27 25 24 24 23 22 22 23 24 24 24 24 26 26 26 27 25 25 23 23 23 23 23 23 23 23 23 24 23 23 21 20 19 17 17 17 19 21 22 23 25 24 23 24 24 24 23 21 21 21 21 20 20 21 21 22 22 24 29 30 28 28 28 29 30 30 30 31 31 32 33 34
35 34 33 31 27 24 23 23 25 27 30 31 32 31 31 29 27 24 22 23 23 23 23 24 24 23 23 23 25 26 27 27 26 26 25 25 25 24 23 23 23 23 24 25 26 26 25 24 22 19 19 20 21 22 23 24 24 22 22 25 25 24 24 24 24 23 22 23 22 23 24 25 25 28 31 31 30 29 30 31 32 32 33 33 34 35 36 38
34 33 32 28 25 24 24 25 27 30 32 32 32 32 33 31 27 22 20 21 22 23 23 23 24 24 24 23 25 26 26 25 24 23 22 21 20 19 19 18 18 19 19 20 21 23 24 24 24 24 25 24 23 24 25 25 23 22 23 26 25 24 26 25 26 25 24 26 24 24 28 30 29 30 30 31 32 31 32 34 35 36 37 38 39 40 41 42
33 31 29 25 23 22 23 26 29 32 33 32 31 31 31 28 23 20 19 19 19 19 20 22 24 25 24 24 25 24 23 21 20 19 18 17 17 17 16 16 16 16 17 17 17 18 19 21 23 25 27 28 28 26 25 23 22 23 26 29 28 30 31 27 27 26 26 29 26 28 36 37 33 32 33 35 36 36 38 39 40 41 41 42 42 42 42 42
29 26 23 20 19 19 22 27 30 30 30 29 28 27 26 23 21 20 21 21 19 20 21 23 25 24 22 23 22 20 19 18 18 18 17 17 17 18 18 18 18 18 18 19 19 20 20 21 23 26 29 31 32 33 33 30 29 30 31 35 37 37 36 32 32 32 32 34 31 34 44 44 40 40 41 42 41 41 41 41 41 41 41 41 41 41 41 41
22 19 16 15 17 21 25 28 29 28 27 26 25 24 24 23 23 23 23 23 22 23 23 24 23 20 19 18 18 17 17 17 16 17 17 17 17 18 18 18 19 20 20 20 21 21 22 24 26 28 30 31 33 39 42 42 44 45 43 47 51 48 45 43 43 43 42 41 38 42 49 47 44 43 43 42 41 39 39 38 39 39 39 40 41 41 42 42
17 15 14 17 21 26 28 28 27 25 23 22 22 23 23 23 23 23 23 22 22 21 21 20 18 17 17 15 15 15 14 15 15 15 15 16 16 16 17 17 18 19 19 19 19 20 21 22 24 26 28 29 32 36 39 44 48 47 45 48 53 52 51 50 48 45 43 42 40 40 44 44 42 41 40 39 38 37 37 37 38 39 41 42 41 40 40 39
15 15 18 23 28 30 29 27 24 22 20 20 20 21 22 21 20 20 19 19 19 18 16 16 16 18 17 14 14 14 14 15 14 14 14 14 15 14 15 15 15 16 16 17 18 18 18 19 21 24 26 26 27 30 36 39 39 38 40 44 47 47 45 44 42 39 36 36 35 35 37 40 39 38 38 38 37 37 38 39 41 41 40 39 36 35 34 34
17 21 26 30 31 30 27 24 22 21 20 19 19 19 19 18 17 16 17 17 17 16 15 14 15 19 18 14 16 15 15 15 15 14 14 14 14 13 13 12 13 13 13 15 17 16 16 18 20 23 24 22 22 26 30 30 28 31 36 39 42 40 37 36 36 33 32 34 34 34 38 39 38 38 39 38 38 40 41 42 41 39 35 32 30 29 29 28
23 29 33 33 30 26 24 23 23 22 21 20 18 17 15 14 13 14 15 15 15 17 17 15 16 18 17 16 17 16 16 15 14 14 13 13 12 13 12 12 12 12 13 16 17 15 16 19 22 23 24 23 22 24 25 24 25 29 32 34 36 37 34 34 34 32 33 36 36 37 39 39 41 42 41 40 40 40 40 38 36 33 28 26 26 25 25 24
32 34 33 30 27 25 24 24 22 22 21 20 17 15 16 15 14 16 16 15 15 17 17 17 17 17 17 17 17 15 16 14 12 12 12 11 11 12 12 12 14 14 16 19 19 17 18 22 25 26 25 24 22 22 25 26 26 30 33 33 35 36 33 32 34 35 36 39 39 38 40 43 44 43 38 36 36 35 34 32 30 28 24 23 23 23 22 22
35 32 29 27 26 26 25 24 23 20 18 18 16 16 18 18 17 19 19 18 17 16 17 17 16 16 17 17 15 14 14 12 11 11 11 11 12 14 13 14 16 18 19 21 22 20 20 24 27 26 26 25 23 23 29 31 30 31 33 34 34 33 31 33 37 37 37 40 40 39 43 47 45 39 34 32 32 32 31 30 28 25 21 21 21 21 21 21
32 28 26 26 26 25 25 25 23 18 16 17 16 16 18 18 18 19 19 19 18 17 18 17 15 16 16 14 14 14 12 12 12 11 12 12 13 15 15 16 18 19 20 22 25 23 23 26 26 24 24 25 24 25 31 32 30 32 32 34 33 29 30 36 38 36 35 37 38 40 44 45 42 37 33 32 31 31 29 28 26 22 19 20 21 21 21 21
28 27 27 25 24 24 23 22 19 17 17 17 16 15 15 16 16 16 18 19 19 18 18 17 15 15 15 13 14 14 12 14 14 14 14 14 15 16 16 17 19 19 19 22 24 23 25 26 24 22 21 22 21 23 31 32 31 32 29 27 25 24 27 31 34 34 34 35 38 41 42 43 42 36 33 32 30 30 29 27 25 20 19 20 21 21 22 22
27 28 25 22 22 21 20 19 18 19 18 16 16 14 14 13 15 17 17 19 20 19 18 16 14 15 14 13 14 14 14 15 16 15 15 16 16 16 16 17 19 20 20 21 21 21 24 24 22 21 20 20 20 22 30 33 33 32 26 21 21 24 25 27 31 33 35 37 37 39 40 40 40 35 31 32 31 31 29 28 24 20 20 21 21 22 23 23
27 26 22 20 21 19 19 20 20 19 17 15 14 14 13 13 16 19 19 21 21 18 17 15 13 14 14 14 15 15 15 15 16 16 14 15 15 16 16 15 18 22 23 22 20 21 23 21 21 22 22 23 22 21 24 28 30 26 21 19 20 23 25 28 32 32 37 41 37 35 33 33 36 33 30 30 31 31 30 27 23 20 20 21 21 22 23 24
25 20 18 21 22 19 21 22 20 18 18 15 12 13 13 13 17 18 19 28 26 16 16 15 15 16 15 15 14 14 16 15 14 14 13 14 14 15 17 16 18 22 24 22 20 22 23 22 23 23 24 24 21 18 18 20 22 19 16 19 19 20 23 26 30 33 38 41 37 32 27 25 32 35 31 29 30 32 30 25 22 21 21 21 21 22 23 24
20 17 19 22 22 20 21 22 19 17 17 13 10 11 10 11 16 14 19 33 27 15 17 16 15 17 16 15 14 14 17 15 14 13 12 13 13 14 18 21 21 22 24 23 22 23 23 24 24 23 23 22 19 16 15 16 17 15 13 17 19 19 21 23 27 33 36 35 34 34 30 26 29 33 32 30 32 33 29 25 22 21 21 22 22 23 24 26
19 19 22 22 21 20 20 19 16 14 13 9 8 8 8 11 14 13 22 30 21 15 19 17 15 15 14 15 13 14 15 14 15 14 11 12 14 14 18 23 24 24 24 22 23 24 22 23 22 19 17 17 15 14 15 15 15 15 15 18 20 18 20 23 24 30 32 31 34 36 34 29 27 32 32 30 34 34 28 26 25 23 23 23 24 25 26 27
22 23 23 21 20 19 16 14 12 10 8 7 7 7 8 11 12 17 25 24 17 18 19 16 16 15 13 13 13 13 13 13 15 14 12 13 15 16 20 24 23 24 23 21 24 24 20 18 18 15 14 14 14 13 15 15 14 16 16 19 23 21 21 23 23 27 28 29 33 30 26 25 25 31 33 32 34 33 28 28 27 25 25 25 26 27 27 29
21 20 19 17 16 13 12 11 8 7 7 7 8 8 9 12 17 25 25 18 19 21 17 16 15 14 15 16 15 15 14 15 15 15 14 15 15 17 20 22 23 25 26 24 27 26 20 17 15 13 13 11 12 12 13 13 13 12 12 17 23 21 20 21 23 25 23 26 29 22 19 23 25 29 31 31 32 31 30 30 29 28 27 28 29 29 29 31
16 15 15 14 12 10 9 8 6 7 7 8 10 10 11 15 22 27 20 15 21 21 17 18 17 15 17 17 17 17 18 17 17 18 19 18 18 18 20 23 26 29 29 28 30 29 23 20 16 12 10 10 12 11 11 14 14 11 11 14 15 15 16 19 24 25 23 26 26 17 17 22 24 26 27 28 31 31 31 32 31 31 30 30 30 30 32 33
14 14 13 11 9 8 7 7 7 7 7 10 10 11 16 20 20 22 19 18 21 20 17 18 17 18 19 20 19 20 22 21 19 20 22 23 23 22 23 23 27 29 27 27 30 30 24 19 16 14 11 10 13 14 13 16 16 12 12 14 18 23 24 24 28 27 21 21 20 15 18 22 22 25 27 30 32 32 31 30 31 31 32 32 31 31 33 35
13 12 10 8 7 7 7 7 7 7 8 10 9 12 20 22 17 18 21 21 19 17 17 18 20 20 21 22 21 22 24 22 20 20 21 24 25 25 24 22 24 26 25 25 27 28 25 19 17 17 13 11 13 15 13 13 15 15 14 17 24 32 33 32 33 29 22 21 17 15 22 26 24 25 30 32 31 30 28 28 30 31 31 31 31 33 34 36
11 9 8 7 7 8 8 9 8 8 9 9 11 16 19 18 17 18 19 19 19 19 19 19 22 22 21 22 20 22 24 21 21 22 22 23 25 26 26 22 21 23 25 25 23 24 24 18 15 16 13 12 14 14 13 15 18 19 17 18 24 28 29 31 32 28 27 27 22 20 26 29 26 26 29 29 28 28 28 30 32 31 31 31 32 35 36 37
8 8 8 8 9 10 10 11 10 10 10 9 14 21 19 16 18 19 19 21 20 21 22 22 23 23 21 21 21 22 22 20 22 25 25 24 25 25 24 21 19 21 23 22 20 24 24 18 14 14 12 12 15 14 14 17 17 17 17 17 21 24 27 31 31 26 28 34 34 29 26 27 26 28 31 29 27 29 29 32 33 31 32 33 35 36 36 36
8 9 9 10 11 11 11 11 10 12 11 9 14 20 20 18 19 20 21 20 20 22 25 24 23 23 22 21 22 23 21 20 22 26 26 26 25 24 22 20 17 18 19 19 19 22 24 20 17 16 14 13 15 14 14 14 12 14 16 14 17 24 28 32 31 28 29 33 33 24 19 22 24 27 32 31 30 32 32 32 32 32 34 35 36 36 35 35
9 10 10 10 11 11 12 10 10 10 8 9 16 19 18 19 20 23 23 21 21 24 24 22 20 21 22 21 22 22 23 22 22 24 26 25 24 22 21 20 16 16 18 19 19 20 22 23 20 19 18 15 15 14 14 13 12 15 16 14 17 24 31 32 30 34 37 34 29 21 18 23 23 23 30 34 33 34 34 34 34 34 35 35 35 35 36 37
10 10 11 11 11 11 10 8 8 7 6 13 21 20 20 22 20 21 23 22 24 24 23 22 20 20 21 21 21 22 23 24 23 25 25 24 23 21 21 20 16 15 17 18 20 19 21 23 21 19 18 17 19 18 17 16 14 15 15 15 16 21 29 31 28 33 36 35 36 30 24 25 26 27 31 34 34 35 35 36 37 36 35 35 36 37 38 40
11 11 10 11 11 9 8 8 5 5 8 17 23 21 21 24 20 19 22 23 25 24 22 22 21 21 22 22 22 23 23 22 23 24 23 24 24 20 18 18 16 16 16 17 18 17 18 20 20 18 17 18 21 21 21 18 16 18 18 18 19 22 27 28 28 31 34 38 44 38 30 27 26 31 33 32 33 35 36 37 38 36 35 36 37 38 40 43
12 11 10 9 9 8 6 6 5 9 15 20 23 22 21 22 20 19 20 22 23 22 21 22 22 22 23 22 22 23 23 22 23 24 24 23 23 20 18 18 20 19 17 16 16 17 19 17 18 19 17 18 21 21 22 20 19 22 24 22 22 24 26 24 26 32 35 42 46 41 36 27 21 28 32 30 33 35 36 38 37 36 35 36 38 39 40 42
11 11 10 7 8 7 5 6 9 15 22 22 22 22 21 21 20 19 20 21 21 20 20 22 23 23 23 23 23 23 24 24 24 24 24 23 21 20 20 20 22 22 18 17 17 18 19 15 15 20 18 18 22 22 22 22 22 24 25 25 24 28 29 25 29 36 37 41 42 39 36 25 18 27 30 29 35 36 36 37 36 35 35 37 39 39 41 42
10 12 10 7 7 5 5 11 15 18 22 22 21 20 20 19 18 18 19 19 19 19 19 21 23 24 24 24 23 24 25 26 25 25 25 24 22 19 19 19 20 21 19 19 17 16 18 17 16 18 18 17 20 21 20 22 25 25 23 22 24 31 33 28 33 39 37 37 37 40 42 29 21 29 31 31 34 34 34 36 35 36 36 38 40 40 42 43
9 10 9 7 7 4 6 15 20 20 21 21 18 18 19 18 18 18 19 19 20 19 19 21 23 23 23 23 23 24 24 24 25 25 25 26 24 18 18 18 17 18 19 21 19 16 18 18 16 17 20 19 19 20 21 22 25 26 23 19 21 30 34 35 38 38 36 36 32 38 45 31 23 30 31 30 33 33 35 36 36 37 38 40 42 41 43 45
8 8 7 7 7 5 9 17 20 20 20 18 18 19 18 17 19 22 22 20 21 21 21 23 22 21 21 22 23 24 23 23 24 24 24 26 24 19 18 17 16 17 19 19 18 17 17 15 13 17 20 20 21 24 24 23 23 23 22 20 23 29 34 37 39 39 41 38 30 37 44 29 24 33 33 32 36 37 37 38 38 40 40 42 43 42 44 47
7 7 6 6 5 5 10 15 17 19 20 20 21 20 19 18 18 21 22 19 19 21 21 21 21 21 21 22 23 24 23 22 23 23 23 24 24 22 19 17 16 16 15 15 15 16 18 16 13 15 17 16 17 18 18 20 21 20 21 21 23 28 31 33 39 44 46 40 34 38 37 23 22 33 35 36 41 42 42 42 41 41 42 43 43 44 45 48
9 10 9 8 7 7 11 11 12 17 20 22 21 19 20 21 19 19 21 19 19 20 20 20 20 21 22 22 23 24 23 23 23 23 25 25 23 22 19 17 16 15 13 14 14 16 21 20 14 16 18 15 13 12 12 15 16 16 19 22 24 28 30 33 41 44 42 41 38 33 28 23 23 28 32 37 42 45 45 43 41 42 43 44 44 44 46 49
10 14 15 12 9 11 14 13 13 15 16 19 20 17 19 22 20 20 20 18 19 20 20 21 22 22 23 23 24 24 23 24 23 23 25 25 24 21 17 17 18 16 14 14 14 16 20 19 16 17 17 14 12 11 11 14 14 14 16 20 25 30 32 33 35 33 32 38 37 26 24 28 26 24 28 34 39 43 44 42 41 42 43 44 44 45 48 51
11 14 14 13 12 15 18 16 13 14 15 17 19 18 19 21 21 21 21 19 19 21 21 23 23 23 24 24 25 25 24 23 24 24 25 24 23 21 18 18 18 16 15 14 13 14 16 17 19 18 16 15 14 13 13 15 15 15 16 18 23 30 34 32 29 27 29 34 29 21 24 29 26 26 30 33 37 40 40 41 41 41 42 43 45 48 50 52
11 12 11 11 12 15 17 15 12 13 16 17 20 20 21 21 20 21 23 22 22 21 21 24 25 25 24 25 26 26 24 23 23 26 27 25 23 22 22 21 18 16 16 15 15 14 14 19 23 21 19 18 15 14 16 17 17 17 17 17 19 27 32 31 28 26 28 30 26 23 28 28 26 30 33 34 36 39 39 40 41 42 44 45 47 49 50 50
10 10 9 11 12 13 15 14 14 17 18 18 19 18 20 22 22 22 24 23 24 23 23 25 26 25 25 25 25 26 25 25 24 25 27 25 23 24 24 21 19 18 16 18 20 18 14 19 24 23 21 21 17 16 17 17 18 18 16 16 18 22 27 29 28 27 28 29 27 29 33 31 28 30 33 34 36 38 40 41 42 45 47 48 48 48 48 49
9 8 8 11 13 13 13 12 15 20 21 19 19 18 20 23 23 22 24 23 23 25 25 27 27 27 26 25 26 28 27 27 27 26 25 23 22 23 21 19 19 19 19 21 26 23 16 19 23 21 19 20 17 15 16 16 18 18 16 16 17 19 22 25 25 25 25 25 27 31 33 30 27 29 32 33 36 39 41 42 43 45 47 48 48 48 48 49
8 8 8 10 14 14 13 14 17 20 19 18 20 20 21 23 21 21 23 22 22 22 23 24 26 27 28 26 27 29 27 26 27 27 25 23 22 22 21 19 18 19 22 25 27 27 24 22 22 20 20 22 17 14 17 18 19 21 21 19 16 17 20 22 22 22 23 24 27 29 27 24 26 29 31 33 36 39 41 43 45 45 45 47 49 49 49 49